Tracking 32991 objects as of 22-Jan-2026
HD Live streaming from Space Station
objects crossing your sky now

BREEZE-M DEB (TANK)

Track BREEZE-M DEB (TANK) now!
10-day predictions


NORAD ID: 36133
Int'l Code: 2009-075C
Perigee: 463.8 km
Apogee: 14,810.8 km
Inclination: 45.9 °
Period: 275.0 minutes
Semi major axis: 14008 km
RCS: 6.9327 m2 (large)
Launch date: December 29, 2009
Source: Commonwealth of Independent States (former USSR) (CIS)
Launch site: TYURATAM MISSILE AND SPACE COMPLEX (TTMTR)

Note: This is SATELLITE DEBRIS
Your satellite tracking list
Your tracking list is empty




NASA's NSSDC Master Catalog

Two Line Element Set (TLE):
1 36133U 09075C   26022.31565845  .00000105  00000-0  20486-3 0  9995
2 36133  45.8980 349.9243 5120870 189.3246 155.5745  5.23630442305236
Source of the keplerian elements: AFSPC